Chapel Hill, NC

1:33 AM EST on November 20, 2017 (GMT -0500)
Williams

Weather History for KIGX - March, 2013

Change the Weather History Date:

Saturday, March 30, 2013

  Actual Average Record
Temperature  
Mean Temperature 52 °F -  
Max Temperature 66 °F 67 °F 87 °F (1989)
Min Temperature 39 °F 43 °F 25 °F (1982)
Degree Days  
Heating Degree Days 14    
Growing Degree Days 2 (Base 50)    
Moisture  
Dew Point 32 °F    
Average Humidity 47    
Maximum Humidity 77    
Minimum Humidity 24    
Precipitation  
Precipitation 0.00 in - - ()
Sea Level Pressure  
Sea Level Pressure 30.16 in    
Wind  
Wind Speed 2 mph (SSW)    
Max Wind Speed 6 mph    
Max Gust Speed -    
Visibility 10 miles    
Events      
Averages and records for this station are not official NWS values.
T = Trace of Precipitation, MM = Missing Value Source: NWS Daily Summary

Daily Weather History Graph

Daily Weather History Graph

Search for Another Location

Airport or City:

Trip Planner

Search our weather history database for the weather conditions in past years. The results will help you decide how hot, cold, wet, or windy it might be!

Date:

Astronomy

Mar. 30, 2013 Rise Set
Actual Time 7:05 AM EDT 7:36 PM EDT
Civil Twilight 6:39 AM EDT 8:02 PM EDT
Nautical Twilight 6:09 AM EDT 8:32 PM EDT
Astronomical Twilight 5:38 AM EDT 9:03 PM EDT
Moon 11:33 PM EDT (3/30) 9:05 AM EDT (3/30)
Length of Visible Light 13h 23m
Length of Day
12h 31m
Waning Gibbous, 86% of the Moon is Illuminated
Mar 30
Waning Gibbous
Apr 3
Last Quarter
Apr 10
New
Apr 18
First Quarter
Apr 25
Full

Hourly Weather History & Observations

Time (EDT) Temp. Windchill Dew Point Humidity Pressure Visibility Wind Dir Wind Speed Gust Speed Precip Events Conditions
12:56 AM 48.9 °F - 28.9 °F 46% 30.20 in 10.0 mi West 5.8 mph - N/A   Overcast
1:56 AM 46.9 °F - 30.0 °F 52% 30.19 in 10.0 mi Calm Calm - N/A   Partly Cloudy
2:56 AM 45.0 °F 43.5 °F 30.9 °F 58% 30.19 in 10.0 mi NW 3.5 mph - N/A   Partly Cloudy
3:56 AM 42.1 °F - 30.9 °F 65% 30.19 in 10.0 mi Calm Calm - N/A   Clear
4:56 AM 42.1 °F - 32.0 °F 67% 30.18 in 10.0 mi Calm Calm - N/A   Overcast
5:56 AM 41.0 °F - 30.9 °F 67% 30.19 in 10.0 mi Calm Calm - N/A   Overcast
6:56 AM 39.9 °F - 33.1 °F 77% 30.22 in 10.0 mi Calm Calm - N/A   Overcast
7:56 AM 42.1 °F - 34.0 °F 73% 30.23 in 10.0 mi Calm Calm - N/A   Overcast
8:56 AM 48.9 °F - 28.9 °F 46% 30.25 in 10.0 mi Calm Calm - N/A   Overcast
9:56 AM 54.0 °F - 28.0 °F 37% 30.25 in 10.0 mi Calm Calm - N/A   Partly Cloudy
10:56 AM 59.0 °F - 24.1 °F 26% 30.23 in 10.0 mi Variable 3.5 mph - N/A   Clear
11:56 AM 59.0 °F - 21.9 °F 24% 30.21 in 10.0 mi Variable 3.5 mph - N/A   Clear
12:56 PM 62.1 °F - 27.0 °F 26% 30.18 in 10.0 mi Variable 3.5 mph - N/A   Clear
1:56 PM 64.0 °F - 28.0 °F 26% 30.15 in 10.0 mi Variable 4.6 mph - N/A   Clear
2:56 PM 64.9 °F - 28.9 °F 26% 30.13 in 10.0 mi Variable 5.8 mph - N/A   Scattered Clouds
3:56 PM 64.0 °F - 30.9 °F 29% 30.11 in 10.0 mi Variable 3.5 mph - N/A   Mostly Cloudy
4:56 PM 64.9 °F - 33.1 °F 31% 30.09 in 10.0 mi Calm Calm - N/A   Partly Cloudy
5:56 PM 64.9 °F - 36.0 °F 34% 30.09 in 10.0 mi ESE 4.6 mph - N/A   Mostly Cloudy
6:56 PM 62.1 °F - 36.0 °F 38% 30.09 in 10.0 mi SE 3.5 mph - N/A   Overcast
7:56 PM 55.9 °F - 39.9 °F 55% 30.10 in 10.0 mi Calm Calm - N/A   Partly Cloudy
8:56 PM 57.9 °F - 39.0 °F 49% 30.11 in 10.0 mi Calm Calm - N/A   Mostly Cloudy
9:56 PM 57.0 °F - 39.9 °F 53% 30.11 in 10.0 mi Calm Calm - N/A   Scattered Clouds
10:56 PM 55.0 °F - 41.0 °F 59% 30.10 in 10.0 mi Calm Calm - N/A   Clear
11:56 PM 55.0 °F - 42.1 °F 62% 30.10 in 10.0 mi Variable 3.5 mph - N/A   Clear